This is the latest recevied weather packets stored in our database for station/object KO4LCK. If no packets are shown the sender has not sent any weather packets the latest 10 day(s).
| Time | Temp. | Humidity | Pressure | Rain* | Wind** | Luminosity | Snow |
|---|---|---|---|---|---|---|---|
| 1777587477 | 20.56° C | 52% | 1013.4 hPa | 0 mm | - | 126 W/m² | - |
| 1777587174 | 20.56° C | 50% | 1013.2 hPa | 0 mm | - | 137 W/m² | - |
| 1777586869 | 20.56° C | 50% | 1013.1 hPa | 0 mm | - | 154 W/m² | - |
| 1777586565 | 20.56° C | 48% | 1013.1 hPa | 0 mm | - | 175 W/m² | - |
| 1777586261 | 21.11° C | 48% | 1013.1 hPa | 0 mm | - | 187 W/m² | - |
| 1777585958 | 21.11° C | 47% | 1012.9 hPa | 0 mm | - | 221 W/m² | - |
| 1777585654 | 21.67° C | 47% | 1013 hPa | 0 mm | - | 205 W/m² | - |
| 1777585349 | 21.11° C | 49% | 1013.1 hPa | 0 mm | - | 304 W/m² | - |
| 1777585044 | 21.11° C | 49% | 1013 hPa | 0 mm | - | 259 W/m² | - |
| 1777584740 | 21.11° C | 48% | 1013.2 hPa | 0 mm | - | 339 W/m² | - |
| 1777584439 | 21.11° C | 47% | 1013.2 hPa | 0 mm | - | 251 W/m² | - |
| 1777584135 | 21.67° C | 47% | 1013.2 hPa | 0 mm | - | 287 W/m² | - |
| 1777583834 | 21.67° C | 54% | 1013.3 hPa | 0 mm | - | 242 W/m² | - |
| 1777583530 | 21.67° C | 47% | 1013.2 hPa | 0 mm | - | 222 W/m² | - |
| 1777583229 | 21.67° C | 48% | 1013.1 hPa | 0 mm | - | 376 W/m² | - |
| 1777582924 | 21.67° C | 54% | 1013.1 hPa | 0 mm | - | 352 W/m² | - |
| 1777582622 | 21.11° C | 51% | 1013.2 hPa | 0 mm | - | 286 W/m² | - |
| 1777582317 | 21.67° C | 53% | 1013.3 hPa | 0 mm | - | 242 W/m² | - |
| 1777582015 | 21.67° C | 48% | 1013.3 hPa | 0 mm | - | 275 W/m² | - |
| 1777581710 | 21.67° C | 52% | 1013.1 hPa | 0 mm | - | 365 W/m² | - |
| 1777581409 | 21.11° C | 53% | 1013.4 hPa | 0 mm | - | 319 W/m² | - |
| 1777581109 | 21.67° C | 48% | 1013.6 hPa | 0 mm | - | 284 W/m² | - |
| 1777580809 | 21.67° C | 48% | 1013.4 hPa | 0 mm | - | 372 W/m² | - |
| 1777580505 | 21.67° C | 49% | 1013.6 hPa | 0 mm | - | 364 W/m² | - |
| 1777580200 | 21.11° C | 48% | 1013.5 hPa | 0 mm | - | 454 W/m² | - |
* Rain latest hour (hover to see other rain measurements)
** Current wind speed in m/s (hover to see current wind gust speed)